| time (UTC) | temp F | wind direction | speed MPH | gust MPH | rain 1hr in | rain 24hr in | rain mn in | humidity % | barometer mb |
| 20260504201535 | 78 | 319 | 3.0 | 10.0 | 0.00 | 0.00 | 0.00 | 32 | 1008.6 |
| 20260504200044 | 78 | 36 | 2.0 | 9.0 | 0.00 | 0.00 | 0.00 | 31 | 1008.7 |
| 20260504194539 | 78 | 24 | 4.0 | 10.0 | 0.00 | 0.00 | 0.00 | 30 | 1008.8 |
| 20260504193039 | 77 | 100 | 3.0 | 8.0 | 0.00 | 0.00 | 0.00 | 31 | 1008.8 |
| 20260504191538 | 76 | 71 | 3.0 | 9.0 | 0.00 | 0.00 | 0.00 | 36 | 1008.9 |
| 20260504190036 | 76 | 344 | 5.0 | 12.0 | 0.00 | 0.00 | 0.00 | 36 | 1009.1 |
| 20260504184536 | 75 | 310 | 3.0 | 15.0 | 0.00 | 0.00 | 0.00 | 36 | 1009.2 |
| 20260504183040 | 75 | 46 | 5.0 | 10.0 | 0.00 | 0.00 | 0.00 | 34 | 1009.3 |
| 20260504181545 | 75 | 336 | 2.0 | 10.0 | 0.00 | 0.00 | 0.00 | 36 | 1009.2 |
| 20260504180039 | 73 | 314 | 2.0 | 10.0 | 0.00 | 0.00 | 0.00 | 36 | 1009.4 |
| 20260504174535 | 73 | 29 | 3.0 | 7.0 | 0.00 | 0.00 | 0.00 | 37 | 1009.5 |
| 20260504173041 | 70 | 66 | 1.0 | 5.0 | 0.00 | 0.00 | 0.00 | 45 | 1009.5 |
| 20260504171547 | 68 | 216 | 0.0 | 5.0 | 0.00 | 0.00 | 0.00 | 51 | 1009.5 |
| 20260504081539 | 51 | 0 | 0.0 | 0.0 | 0.00 | 0.00 | 0.00 | 76 | 1008.4 |
| 20260504044542 | 59 | 0 | 0.0 | 0.0 | 0.00 | 0.00 | 0.00 | 62 | 1008.5 |
| 20260504043043 | 60 | 0 | 0.0 | 0.0 | 0.00 | 0.00 | 0.00 | 63 | 1008.6 |
| 20260504041541 | 61 | 0 | 0.0 | 0.0 | 0.00 | 0.00 | 0.00 | 61 | 1008.5 |
| 20260504040059 | 63 | 0 | 0.0 | 0.0 | 0.00 | 0.00 | 0.00 | 60 | 1008.5 |
| 20260504034534 | 64 | 43 | 0.0 | 1.0 | 0.00 | 0.00 | 0.00 | 58 | 1008.4 |
| 20260504033034 | 66 | 0 | 0.0 | 1.0 | 0.00 | 0.00 | 0.00 | 56 | 1008.4 |
| 20260504031541 | 68 | 0 | 0.0 | 0.0 | 0.00 | 0.00 | 0.00 | 54 | 1008.4 |
| 20260504030058 | 71 | 0 | 0.0 | 0.0 | 0.00 | 0.00 | 0.00 | 46 | 1008.3 |
| 20260504024538 | 78 | 0 | 0.0 | 0.0 | 0.00 | 0.00 | 0.00 | 35 | 1008.4 |
| 20260504023037 | 81 | 0 | 0.0 | 0.0 | 0.00 | 0.00 | 0.00 | 32 | 1008.3 |
| 20260504021535 | 81 | 0 | 0.0 | 2.0 | 0.00 | 0.00 | 0.00 | 31 | 1008.4 |
| 20260504020042 | 82 | 172 | 0.0 | 3.0 | 0.00 | 0.00 | 0.00 | 30 | 1008.5 |
| 20260504014542 | 81 | 163 | 1.0 | 5.0 | 0.00 | 0.00 | 0.00 | 29 | 1008.5 |
| 20260504013047 | 81 | 161 | 2.0 | 4.0 | 0.00 | 0.00 | 0.00 | 28 | 1008.7 |
| 20260504011537 | 80 | 153 | 1.0 | 4.0 | 0.00 | 0.00 | 0.00 | 30 | 1008.7 |
| 20260504010033 | 80 | 167 | 2.0 | 6.0 | 0.00 | 0.00 | 0.00 | 30 | 1008.9 |
| 20260504004533 | 81 | 167 | 2.0 | 6.0 | 0.00 | 0.00 | 0.00 | 27 | 1008.9 |
| 20260504003042 | 81 | 0 | 0.0 | 3.0 | 0.00 | 0.00 | 0.00 | 28 | 1009.1 |
| 20260504001552 | 82 | 165 | 3.0 | 7.0 | 0.00 | 0.00 | 0.00 | 28 | 1009.2 |
| 20260504000039 | 82 | 0 | 0.0 | 3.0 | 0.00 | 0.00 | 0.00 | 28 | 1009.2 |
| 20260503234534 | 83 | 128 | 2.0 | 5.0 | 0.00 | 0.00 | 0.00 | 28 | 1009.3 |
| 20260503233043 | 82 | 272 | 0.0 | 10.0 | 0.00 | 0.00 | 0.00 | 26 | 1009.5 |
| 20260503231548 | 82 | 327 | 2.0 | 6.0 | 0.00 | 0.00 | 0.00 | 27 | 1009.8 |
| 20260503230042 | 83 | 90 | 3.0 | 6.0 | 0.00 | 0.00 | 0.00 | 26 | 1009.9 |
| 20260503224538 | 83 | 0 | 0.0 | 9.0 | 0.00 | 0.00 | 0.00 | 28 | 1010.2 |
| 20260503223037 | 81 | 122 | 4.0 | 8.0 | 0.00 | 0.00 | 0.00 | 28 | 1010.5 |
| 20260503221542 | 81 | 153 | 2.0 | 10.0 | 0.00 | 0.00 | 0.00 | 28 | 1010.7 |
| 20260503220043 | 81 | 202 | 2.0 | 9.0 | 0.00 | 0.00 | 0.00 | 29 | 1010.8 |
| 20260503214540 | 80 | 243 | 3.0 | 11.0 | 0.00 | 0.00 | 0.00 | 30 | 1011.1 |
| 20260503213044 | 80 | 175 | 2.0 | 11.0 | 0.00 | 0.00 | 0.00 | 30 | 1011.5 |
| 20260503211540 | 80 | 240 | 3.0 | 11.0 | 0.00 | 0.00 | 0.00 | 31 | 1011.7 |
| 20260503210034 | 79 | 0 | 1.0 | 6.0 | 0.00 | 0.00 | 0.00 | 28 | 1011.9 |
| 20260503204552 | 79 | 310 | 4.0 | 8.0 | 0.00 | 0.00 | 0.00 | 29 | 1012.1 |
| 20260503203045 | 78 | 257 | 1.0 | 8.0 | 0.00 | 0.00 | 0.00 | 29 | 1012.3 |